TimeEST,TemperatureF,Dew PointF,Humidity,Sea Level PressureIn,VisibilityMPH,Wind Direction,Wind SpeedMPH,Gust SpeedMPH,PrecipitationIn,Events,Conditions,WindDirDegrees,DateUTC
12:53 AM,44.1,37.9,79,29.78,10.0,WNW,5.8,-,N/A,,Overcast,290,2012-12-11 05:53:00
1:53 AM,43.0,37.0,80,29.79,10.0,NW,6.9,-,N/A,,Overcast,320,2012-12-11 06:53:00
2:13 AM,42.8,37.4,81,29.78,10.0,NW,6.9,-,N/A,,Overcast,310,2012-12-11 07:13:00
2:53 AM,42.1,37.9,85,29.82,10.0,WNW,6.9,-,N/A,,Overcast,300,2012-12-11 07:53:00
3:53 AM,42.1,35.1,76,29.86,10.0,WNW,13.8,-,N/A,,Overcast,290,2012-12-11 08:53:00
4:53 AM,41.0,34.0,76,29.88,10.0,NW,13.8,-,N/A,,Overcast,310,2012-12-11 09:53:00
5:53 AM,39.0,33.1,79,29.91,10.0,NW,8.1,-,N/A,,Scattered Clouds,320,2012-12-11 10:53:00
6:53 AM,39.0,32.0,76,29.94,10.0,Calm,Calm,-,N/A,,Clear,0,2012-12-11 11:53:00
7:53 AM,37.9,32.0,79,29.96,10.0,Calm,Calm,-,N/A,,Clear,0,2012-12-11 12:53:00
8:53 AM,41.0,33.1,73,29.99,10.0,NW,4.6,-,N/A,,Clear,320,2012-12-11 13:53:00
9:53 AM,44.1,33.1,65,29.99,10.0,WNW,21.9,25.3,N/A,,Partly Cloudy,300,2012-12-11 14:53:00
10:53 AM,46.0,34.0,63,30.02,10.0,WNW,17.3,29.9,N/A,,Partly Cloudy,300,2012-12-11 15:53:00
11:53 AM,44.1,33.1,65,30.04,10.0,West,11.5,-,N/A,,Partly Cloudy,280,2012-12-11 16:53:00
12:53 PM,45.0,32.0,60,30.04,10.0,WNW,15.0,-,N/A,,Overcast,290,2012-12-11 17:53:00
1:53 PM,43.0,30.0,60,30.06,10.0,NW,13.8,-,N/A,,Overcast,320,2012-12-11 18:53:00
2:53 PM,42.1,28.9,60,30.08,10.0,NW,12.7,-,N/A,,Overcast,310,2012-12-11 19:53:00
3:53 PM,41.0,28.9,62,30.11,10.0,NW,9.2,-,N/A,,Overcast,310,2012-12-11 20:53:00
4:53 PM,39.0,28.0,65,30.13,10.0,WNW,5.8,-,N/A,,Overcast,290,2012-12-11 21:53:00
5:53 PM,39.9,28.0,63,30.17,10.0,WNW,4.6,-,N/A,,Overcast,300,2012-12-11 22:53:00
6:53 PM,39.0,27.0,62,30.19,10.0,Calm,Calm,-,N/A,,Overcast,0,2012-12-11 23:53:00
7:53 PM,39.0,27.0,62,30.22,10.0,WSW,3.5,-,N/A,,Overcast,250,2012-12-12 00:53:00
8:53 PM,37.9,26.1,62,30.22,10.0,West,3.5,-,N/A,,Overcast,270,2012-12-12 01:53:00
9:53 PM,37.9,26.1,62,30.24,10.0,WSW,3.5,-,N/A,,Scattered Clouds,250,2012-12-12 02:53:00
10:53 PM,36.0,26.1,67,30.25,10.0,West,3.5,-,N/A,,Clear,270,2012-12-12 03:53:00
11:53 PM,35.1,26.1,70,30.26,10.0,West,3.5,-,N/A,,Clear,280,2012-12-12 04:53:00